Find Starlink 4716

NORAD ID: 53706 Int'l Des: 2022-107 Owner: SPXS Country: US Constellation: starlink operational
LEOCIRCULAR

現在のビュー

3D地球を読み込み中...

About Starlink 4716

Starlink 4716 (NORAD 53706) is a starlink constellation satellite (v1.5) launched Sep 5, 2022 by SPXS of US. It operates in LEO, CIRCULAR orbit with a mass of 305.00 kg.

Starlink 4716について

説明を読み込み中...

次回通過

Passes for default location (London). Set your location on the main map for personalized predictions.

高度履歴

Loading altitude history...

軌道要素

1 53706U 22107G 26194.55013070 .00000090 00000-0 23764-4 0 9991
2 53706 53.1606 38.9214 0001296 86.2629 273.8510 15.08833223213852
Epoch: Jul 13, 2026 • Age: 14 hours

現在のステータス

高度 545.1 km
遠地点 / 近地点 N/A
速度 7.59 km/s
衛星直下点 -18.28°S, 38.85°E
打ち上げ日 Sep 5, 2022
運用期間 3.8 years
タイプ internet

技術仕様

分類 Payload
質量 305.00 kg
乾燥質量 290.00 kg
総質量 305.00 kg
長さ 0.20 m
直径 2.80 m
スパン 9.00 m
形状 Box + pan
製造者 SPXS
バスタイプ Starlink
フェーズステータス In Orbit
所有者/国 SPXS/US

Most Searched